Volver al catálogo

JILIN-1 GAOFEN 03D 19 XING

ActivoCienciaSSO
NORAD 57004·PAYLOAD·🇨🇳 China
Este nombre de satélite aún no ha sido confirmado por fuentes oficiales.

Lanzado Jun 15, 2023 desde Taiyuan Satellite Launch Center

Loading…

Próximos Pases (próximas 24 horas)

TLE

ActualizadoSource: Space-Track

Época: Sep 14, 2026, 14:38 UTC

1 57004U 23085A   26257.61041605  .00010721  00000-0  34469-3 0  9999
2 57004  97.5023   8.6415 0007744  77.2290 282.9817 15.32412475180254

Sigue JILIN-1 GAOFEN 03D 19 XING en tiempo real con AllMySat

Download on the App Store